When you browse on this site, cookies collect data to enhance your experience and personalize the content and advertising you see.
Visit our Privacy Policy to learn more. By continuing to use the site, you agree to this use of cookies and data.
  • In United Kingdom
  • List of Countries
  • For 7 days
  • Water Temperature
  • Weather Map
  • Weather Widgets
  • user-avatar
    Login

    Hourly Weather Blyth

    Today, 27 May, Wednesday

    Time Temperature Precipitation Wind Pressure Humidity
    00:00 +10°C° 0 mm 3 mps 776 mmHg 83%
    01:00 +9°C° 0 mm 3 mps 776 mmHg 81%
    02:00 +9°C° 0 mm 3 mps 776 mmHg 79%
    03:00 +8°C° 0 mm 3 mps 776 mmHg 77%
    04:00 +9°C° 0 mm 2 mps 776 mmHg 75%
    05:00 +10°C° 0 mm 2 mps 776 mmHg 73%
    06:00 +12°C° 0 mm 2 mps 776 mmHg 72%
    07:00 +12°C° 0 mm 3 mps 776 mmHg 67%
    08:00 +13°C° 0 mm 3 mps 777 mmHg 63%
    09:00 +16°C° 0 mm 3 mps 777 mmHg 58%
    10:00 +15°C° 0 mm 4 mps 777 mmHg 58%
    11:00 +15°C° 0 mm 4 mps 777 mmHg 58%
    12:00 +17°C° 0 mm 4 mps 777 mmHg 57%
    13:00 +17°C° 0 mm 4 mps 777 mmHg 58%
    14:00 +15°C° 0 mm 4 mps 777 mmHg 59%
    15:00 +15°C° 0 mm 4 mps 777 mmHg 60%
    16:00 +14°C° 0 mm 4 mps 777 mmHg 63%
    17:00 +14°C° 0 mm 4 mps 777 mmHg 67%
    18:00 +13°C° 0 mm 4 mps 776 mmHg 70%
    19:00 +11°C° 0 mm 3 mps 777 mmHg 74%
    20:00 +10°C° 0 mm 2 mps 777 mmHg 78%
    21:00 +10°C° 0 mm 1 mps 777 mmHg 83%
    22:00 +10°C° 0 mm 1 mps 777 mmHg 83%
    23:00 +10°C° 0 mm 1 mps 777 mmHg 83%

    Tomorrow, 28 May, Thursday

    Time Temperature Precipitation Wind Pressure Humidity
    00:00 +9°C° 0 mm 1 mps 777 mmHg 83%
    01:00 +10°C° 0 mm 1 mps 776 mmHg 82%
    02:00 +9°C° 0 mm 2 mps 776 mmHg 80%
    03:00 +9°C° 0 mm 2 mps 776 mmHg 79%
    04:00 +10°C° 0 mm 2 mps 775 mmHg 79%
    05:00 +12°C° 0 mm 2 mps 775 mmHg 78%
    06:00 +13°C° 0 mm 2 mps 775 mmHg 78%
    07:00 +15°C° 0 mm 2 mps 775 mmHg 75%
    08:00 +17°C° 0 mm 3 mps 774 mmHg 71%
    09:00 +19°C° 0 mm 3 mps 774 mmHg 68%
    10:00 +20°C° 0 mm 3 mps 774 mmHg 65%
    11:00 +22°C° 0 mm 3 mps 774 mmHg 63%
    12:00 +24°C° 0 mm 2 mps 773 mmHg 60%
    13:00 +24°C° 0 mm 3 mps 773 mmHg 61%
    14:00 +24°C° 0 mm 3 mps 773 mmHg 61%
    15:00 +24°C° 0 mm 3 mps 772 mmHg 62%
    16:00 +24°C° 0 mm 3 mps 772 mmHg 66%
    17:00 +22°C° 0 mm 3 mps 772 mmHg 70%
    18:00 +22°C° 0 mm 3 mps 772 mmHg 74%
    19:00 +20°C° 0 mm 3 mps 772 mmHg 78%
    20:00 +19°C° 0 mm 3 mps 772 mmHg 81%
    21:00 +18°C° 0 mm 2 mps 772 mmHg 85%
    22:00 +17°C° 0 mm 2 mps 772 mmHg 85%
    23:00 +17°C° 0 mm 2 mps 772 mmHg 86%

    Day after tomorrow, 29 May, Friday

    Time Temperature Precipitation Wind Pressure Humidity
    00:00 +16°C° 0 mm 2 mps 771 mmHg 87%
    01:00 +16°C° 0 mm 2 mps 771 mmHg 87%
    02:00 +16°C° 0 mm 2 mps 771 mmHg 88%
    03:00 +15°C° 0 mm 2 mps 771 mmHg 88%
    04:00 +16°C° 0 mm 1 mps 771 mmHg 87%
    05:00 +18°C° 0 mm 1 mps 771 mmHg 86%
    06:00 +19°C° 0 mm 1 mps 770 mmHg 84%
    07:00 +20°C° 0 mm 1 mps 770 mmHg 79%
    08:00 +21°C° 0 mm 1 mps 770 mmHg 74%
    09:00 +23°C° 0 mm 2 mps 770 mmHg 69%
    10:00 +23°C° 0 mm 2 mps 770 mmHg 67%
    11:00 +24°C° 0 mm 3 mps 770 mmHg 65%
    12:00 +25°C° 0 mm 4 mps 770 mmHg 62%
    13:00 +25°C° 0 mm 4 mps 769 mmHg 62%
    14:00 +25°C° 0 mm 4 mps 769 mmHg 62%
    15:00 +25°C° 0 mm 4 mps 769 mmHg 61%
    16:00 +23°C° 0 mm 4 mps 769 mmHg 64%
    17:00 +23°C° 0 mm 4 mps 769 mmHg 66%
    18:00 +22°C° 0 mm 4 mps 768 mmHg 69%
    19:00 +21°C° 0 mm 3 mps 769 mmHg 73%
    20:00 +19°C° 0 mm 3 mps 769 mmHg 77%
    21:00 +17°C° 0 mm 3 mps 769 mmHg 81%
    22:00 +17°C° 0 mm 3 mps 769 mmHg 82%
    23:00 +16°C° 0 mm 3 mps 769 mmHg 83%

    30 May, Saturday

    Time Temperature Precipitation Wind Pressure Humidity
    00:00 +16°C° 0 mm 3 mps 769 mmHg 84%
    01:00 +14°C° 0 mm 3 mps 769 mmHg 85%
    02:00 +14°C° 0 mm 3 mps 769 mmHg 85%
    03:00 +14°C° 0 mm 3 mps 769 mmHg 86%
    04:00 +15°C° 0 mm 2 mps 769 mmHg 85%
    05:00 +16°C° 0 mm 2 mps 769 mmHg 83%
    06:00 +17°C° 0 mm 2 mps 769 mmHg 81%
    07:00 +18°C° 0 mm 2 mps 769 mmHg 77%
    08:00 +20°C° 0 mm 2 mps 769 mmHg 73%
    09:00 +21°C° 0 mm 2 mps 769 mmHg 69%
    10:00 +22°C° 0 mm 3 mps 769 mmHg 67%
    11:00 +22°C° 0 mm 4 mps 769 mmHg 64%
    12:00 +22°C° 0 mm 4 mps 769 mmHg 62%
    13:00 +22°C° 0 mm 5 mps 768 mmHg 62%
    14:00 +22°C° 0 mm 5 mps 768 mmHg 62%
    15:00 +22°C° 0 mm 5 mps 768 mmHg 61%
    16:00 +21°C° 0 mm 5 mps 768 mmHg 64%
    17:00 +20°C° 0 mm 5 mps 768 mmHg 67%
    18:00 +19°C° 0 mm 5 mps 768 mmHg 70%
    19:00 +17°C° 0 mm 5 mps 768 mmHg 74%
    20:00 +15°C° 0 mm 5 mps 768 mmHg 78%
    21:00 +14°C° 0 mm 5 mps 768 mmHg 82%
    22:00 +13°C° 0 mm 4 mps 768 mmHg 82%
    23:00 +12°C° 0 mm 4 mps 768 mmHg 82%

    31 May, Sunday

    Time Temperature Precipitation Wind Pressure Humidity
    00:00 +12°C° 0 mm 4 mps 768 mmHg 83%
    01:00 +11°C° 0 mm 4 mps 768 mmHg 83%
    02:00 +11°C° 0 mm 3 mps 768 mmHg 83%
    03:00 +10°C° 0 mm 3 mps 768 mmHg 83%
    04:00 +11°C° 0 mm 3 mps 768 mmHg 81%
    05:00 +12°C° 0 mm 3 mps 768 mmHg 79%
    06:00 +12°C° 0 mm 3 mps 768 mmHg 78%
    07:00 +13°C° 0 mm 3 mps 768 mmHg 74%
    08:00 +15°C° 0 mm 4 mps 768 mmHg 70%
    09:00 +17°C° 0 mm 4 mps 768 mmHg 66%
    10:00 +17°C° 0 mm 4 mps 768 mmHg 64%
    11:00 +18°C° 0 mm 4 mps 768 mmHg 63%
    12:00 +19°C° 0 mm 4 mps 768 mmHg 61%
    13:00 +19°C° 0 mm 5 mps 767 mmHg 62%
    14:00 +17°C° 0 mm 5 mps 767 mmHg 62%
    15:00 +17°C° 0 mm 5 mps 767 mmHg 63%
    16:00 +17°C° 0 mm 5 mps 767 mmHg 65%
    17:00 +16°C° 0 mm 5 mps 767 mmHg 66%
    18:00 +16°C° 0 mm 5 mps 766 mmHg 68%
    19:00 +15°C° 0 mm 4 mps 766 mmHg 73%
    20:00 +13°C° 0 mm 4 mps 766 mmHg 78%
    21:00 +12°C° 0 mm 4 mps 766 mmHg 83%
    22:00 +12°C° 0 mm 4 mps 766 mmHg 84%
    23:00 +11°C° 0 mm 3 mps 766 mmHg 85%

    1 June, Monday

    Time Temperature Precipitation Wind Pressure Humidity
    00:00 +11°C° 0 mm 3 mps 766 mmHg 86%
    01:00 +10°C° 0 mm 3 mps 766 mmHg 86%
    02:00 +10°C° 0 mm 3 mps 766 mmHg 86%
    03:00 +10°C° 0 mm 2 mps 765 mmHg 86%
    04:00 +12°C° 0 mm 2 mps 765 mmHg 83%
    05:00 +12°C° 0 mm 2 mps 765 mmHg 80%
    06:00 +13°C° 0 mm 2 mps 765 mmHg 78%
    07:00 +14°C° 0 mm 3 mps 765 mmHg 73%
    08:00 +16°C° 0 mm 3 mps 765 mmHg 68%
    09:00 +18°C° 0 mm 4 mps 765 mmHg 63%
    10:00 +18°C° 0 mm 4 mps 764 mmHg 61%
    11:00 +19°C° 0 mm 5 mps 764 mmHg 59%
    12:00 +20°C° 0 mm 5 mps 764 mmHg 57%
    13:00 +20°C° 0 mm 5 mps 764 mmHg 57%
    14:00 +20°C° 0 mm 5 mps 763 mmHg 57%
    15:00 +20°C° 0 mm 5 mps 763 mmHg 58%
    16:00 +19°C° 0 mm 5 mps 763 mmHg 60%
    17:00 +17°C° 0 mm 5 mps 763 mmHg 63%
    18:00 +17°C° 0 mm 4 mps 763 mmHg 66%
    19:00 +15°C° 0 mm 4 mps 763 mmHg 71%
    20:00 +13°C° 0 mm 3 mps 763 mmHg 75%
    21:00 +13°C° 0 mm 2 mps 763 mmHg 80%
    22:00 +12°C° 0 mm 2 mps 763 mmHg 80%
    23:00 +12°C° 0 mm 1 mps 763 mmHg 81%
    Show more